User: anonymous   Login
Location: Unspecified
(0.0000°N, 0.0000°E)
Time: 19:49:32
(UTC+00:00)
Language:

Resurs 1-4 - Orbit

View from above orbital plane
View from above orbital plane
View from above satellite
View from above satellite

Ground track
Ground track

The orbit data is extracted from the following two-line orbital elements,

1 25394U 98043A   17269.49496199 -.00000057  00000-0 -58916-5 0  9991
2 25394  98.5672 210.6280 0001993  40.5269 319.6058 14.24453603998762
Epoch (UTC): 26 September 2017 11:52:44
Eccentricity: 0.0001993
inclination: 98.5672°
perigee height: 809 km
apogee height: 812 km
right ascension of ascending node: 210.6280°
argument of perigee: 40.5269°
revolutions per day: 14.24453603
mean anomaly at epoch: 319.6058°
orbit number at epoch: 99876

The dashed part of the orbit path shows where the satellite is in the earth's shadow,  

DLR